Location: Recife
(8.0585°S, 34.8848°W)
Time: 12:57:57
(UTC-03:00)

Vanguard 1 - Pass Details

Date: 21 April 2026
Orbit: 654 x 3817 km, 34.3° (Epoch: 11 May)

Event Time Altitude Azimuth Distance (km) Brightness Sun altitude
Rises 20:43:52 0° 277° (W) 6,334 14.8 -51.8°
Reaches altitude 10° 20:49:26 10° 292° (WNW) 5,817 14.4 -53.2°
Maximum altitude 21:02:23 21° 335° (NNW) 5,676 14.0 -56.4°
Drops below altitude 10° 21:17:55 10° 17° (NNE) 6,900 14.3 -60.1°
Sets 21:25:54 0° 32° (NNE) 7,774 14.5 -62.1°
